Flag for Saudi Arabia Weather past 2 weeks in Jeddah, Saudi Arabia

Now
84 °F

Sunny.


Feels Like: 84 °F
Forecast: 76 / 88 °F
Wind: 14 mph from Northwest

Location: Jeddah King Abdul Aziz International Airport

Current Time: Apr 19, 2015 at 4:20:11 PM

Latest Report: Apr 19, 2015 at 4:00 PM


Visibility: 10 mi

Pressure: 29.77 "Hg

Humidity: 45%

Dew point: 61 °F

Location of JeddahLocation

Historic Weather in Jeddah — Graph

°F

Jeddah temperature yesterday

Maximum temperature yesterday: 84 °F (at 12:00 PM)
Minimum temperature yesterday: 72 °F (at 5:00 AM)
Average temperature yesterday: 78 °F

Past Weeks' High & Low Weather Summary

 TemperatureHumidityPressure
High95 °F (Apr 10, 12:00 PM)74% (Apr 7, 12:00 AM)30.07 "Hg (Apr 7, 12:00 AM)
Low68 °F (Apr 13, 6:00 AM)20% (Apr 7, 5:00 PM)29.65 "Hg (Apr 10, 3:00 AM)
Average80 °F49%29.85 "Hg
* Reported Apr 4 3:00 PM — Apr 19 3:00 PM, Jeddah, Weather by CustomWeather, © 2015

Note: Actual official high and low records may vary slightly from our data, if they occured in-between our weather recording intervals... More about our weather records

Advertising

Jeddah weather history for previous 24 hours

 ConditionsComfort  
Time TempWeatherWind HumidityBarometerVisibility
3:00 PM
Sun, Apr 19
86 °FSunny.14 mph43%29.77 "Hg10 mi
2:00 PM86 °FSunny.12 mph43%29.80 "Hg10 mi
1:00 PM86 °FSunny.16 mph38%29.80 "Hg10 mi
12:00 PM88 °FSunny.14 mph35%29.80 "Hg4 mi
11:00 AM91 °FSunny.9 mph28%29.83 "Hg4 mi
10:00 AM88 °FSunny.14 mph40%29.83 "Hg10 mi
9:00 AM82 °FSunny.12 mph55%29.83 "Hg10 mi
8:00 AM77 °FSunny.12 mph69%29.83 "Hg10 mi
7:00 AM75 °FSunny.5 mph74%29.80 "Hg10 mi
6:00 AM75 °FClear.5 mph74%29.80 "Hg10 mi
5:00 AM75 °FClear.5 mph69%29.80 "Hg10 mi
4:00 AM75 °FClear.6 mph69%29.80 "Hg10 mi
3:00 AM75 °FClear.6 mph69%29.80 "Hg10 mi
2:00 AM77 °FClear.5 mph65%29.83 "Hg10 mi
1:00 AM77 °FClear.6 mph65%29.86 "Hg10 mi
12:00 AM77 °FClear.8 mph65%29.89 "Hg10 mi
11:00 PM
Sat, Apr 18
77 °FClear.12 mph61%29.89 "Hg10 mi
10:00 PM77 °FClear.12 mph61%29.89 "Hg10 mi
9:00 PM77 °FClear.14 mph65%29.89 "Hg10 mi
8:00 PM77 °FClear.16 mph65%29.86 "Hg10 mi
7:00 PM79 °FClear.12 mph58%29.83 "Hg10 mi
6:00 PM81 °FSunny.14 mph58%29.83 "Hg10 mi
5:00 PM82 °FSunny.12 mph51%29.83 "Hg10 mi
4:00 PM82 °FSunny.16 mph48%29.83 "Hg10 mi
Weather by CustomWeather, © 2015

See weather overviewHow to use our weather pages